1518951600.08,55796,10.63,73074.3,-3.05,-39.15,-40.09,0,*5D
1518951601.34,55797,10.69,73078.0,-3.07,-38.23,-38.79,0,*52
1518951602.57,55798,10.69,73078.3,-3.07,-38.97,-39.59,0,*51
1518951603.8,55799,10.69,73078.0,-3.07,-40.15,-40.91,0,*5F
1518951605.04,55800,10.63,73076.0,-3.07,-40.09,-40.73,0,*51
1518951606.27,55801,10.69,73078.5,-3.05,-39.91,-40.65,0,*5A
1518951607.51,55802,10.63,73074.3,-3.05,-40.35,-41.03,0,*58
1518951608.78,55803,10.69,73076.0,-3.07,-39.15,-39.79,0,*55
1518951610.04,55804,10.63,73074.5,-3.07,-40.09,-40.79,0,*5F
1518951611.27,55805,10.69,73076.8,-3.07,-39.97,-40.53,0,*5F
1518951612.5,55806,10.69,73074.8,-3.07,-41.17,-41.93,0,*56
1518951613.73,55807,10.69,73078.8,-3.11,-39.97,-40.47,0,*5F
1518951614.99,55808,10.69,73078.8,-3.11,-39.41,-39.97,0,*58
1518951616.25,55809,10.69,73080.0,-3.09,-39.23,-39.91,0,*52
1518951617.48,55810,10.69,73082.8,-3.11,-39.41,-40.03,0,*52
1518951618.72,55811,10.69,73074.8,-3.09,-40.53,-41.29,0,*5E
1518951620.01,55812,10.69,73076.3,-3.09,-39.59,-40.09,0,*5A
1518951621.27,55813,10.69,73076.8,-3.09,-39.23,-39.91,0,*59
1518951622.53,55814,10.69,73078.5,-3.09,-38.97,-39.59,0,*54
1518951623.77,55815,10.69,73074.5,-3.11,-40.15,-40.79,0,*55
1518951625.07,55816,10.63,73074.3,-3.09,-39.79,-40.21,0,*56
1518951626.31,55817,10.63,73074.8,-3.09,-38.61,-38.85,0,*5E
1518951627.56,55818,10.69,73078.5,-3.09,-38.73,-39.23,0,*5F
1518951628.79,55819,10.69,73078.3,-3.09,-38.73,-39.35,0,*59
1518951630.03,55820,10.69,73076.8,-3.05,-38.67,-38.97,0,*53
1518951631.3,55821,10.63,73078.0,-3.05,-38.49,-39.09,0,*58
1518951632.56,55822,10.69,73074.8,-3.05,-39.15,-39.91,0,*52
1518951633.8,55823,10.69,73078.3,-3.05,-39.09,-39.65,0,*55
1518951635.07,55824,10.69,73078.3,-3.07,-40.09,-40.59,0,*5F
1518951636.27,55825,10.63,73072.8,-3.07,-40.53,-41.11,0,*5C
1518951637.52,55826,10.69,73078.3,-3.07,-40.15,-40.97,0,*52
1518951638.76,55827,10.69,73078.3,-3.07,-39.71,-40.15,0,*55
1518951640.01,55828,10.69,73076.8,-3.07,-40.35,-40.97,0,*5E
1518951641.24,55829,10.69,73078.3,-3.07,-39.97,-40.53,0,*51
1518951642.53,55830,10.69,73078.5,-3.05,-39.15,-39.97,0,*57
1518951643.8,55831,10.69,73076.5,-3.07,-39.59,-40.21,0,*5F
1518951645.06,55832,10.69,73078.0,-3.07,-39.23,-39.79,0,*52
1518951646.29,55833,10.69,73076.3,-3.07,-38.55,-39.03,0,*5E
1518951647.54,55834,10.69,73080.0,-3.05,-38.55,-39.15,0,*5C
1518951648.84,55835,10.69,73076.5,-3.05,-40.09,-40.97,0,*5F
1518951650.12,55836,10.63,73078.8,-3.05,-39.71,-40.29,0,*58
1518951651.36,55837,10.69,73080.0,-3.05,-39.65,-40.15,0,*53
1518951652.56,55838,10.69,73082.0,-3.07,-40.53,-41.29,0,*5B
1518951653.82,55839,10.63,73076.3,-3.07,-38.79,-39.23,0,*58
1518951655.08,55840,10.69,73078.0,-3.05,-38.91,-39.65,0,*50
1518951656.31,55841,10.69,73078.5,-3.05,-38.55,-39.09,0,*53
1518951657.51,55842,10.69,73076.0,-3.03,-38.43,-38.73,0,*5D
1518951658.77,55843,10.69,73080.0,-3.03,-38.23,-38.49,0,*53
1518951660.04,55844,10.69,73078.0,-3.03,-38.49,-38.91,0,*5D
1518951661.3,55845,10.69,73078.8,-3.01,-38.05,-38.29,0,*55
1518951662.6,55846,10.69,73080.8,-3.01,-37.93,-38.29,0,*56
1518951663.81,55847,10.69,73076.3,-2.99,-40.03,-40.53,0,*5C
1518951665.08,55848,10.69,73072.0,-2.99,-39.59,-39.97,0,*54
1518951666.31,55849,10.69,73068.8,-3.01,-39.09,-39.47,0,*5D
1518951667.54,55850,10.69,73074.5,-2.97,-38.61,-38.97,0,*58
1518951668.77,55851,10.63,73070.5,-2.99,-38.97,-39.41,0,*54
1518951669.98,55852,10.69,73078.5,-2.99,-38.55,-38.85,0,*50
1518951671.19,55853,10.69,73082.3,-2.99,-38.05,-38.43,0,*5E
1518951672.45,55854,10.63,73070.0,-2.95,-37.93,-38.49,0,*5F
1518951673.67,55855,10.69,73070.5,-2.95,-38.97,-39.53,0,*5F
1518951674.91,55856,10.69,73074.0,-2.95,-37.93,-38.35,0,*56
1518951676.15,55857,10.69,73076.3,-2.95,-37.33,-37.63,0,*51
1518951677.39,55858,10.69,73076.3,-2.91,-37.45,-37.99,0,*5E
1518951678.6,55859,10.69,73078.5,-2.91,-38.35,-38.61,0,*5F
1518951679.88,55860,10.69,73072.3,-2.89,-38.11,-38.49,0,*50
1518951681.15,55861,10.69,73072.5,-2.89,-38.29,-38.55,0,*57
1518951682.35,55862,10.69,73076.3,-2.87,-38.43,-38.73,0,*52
1518951683.58,55863,10.69,73076.5,-2.87,-37.75,-38.11,0,*5D
1518951684.84,55864,10.69,73078.3,-2.85,-37.69,-38.17,0,*53
1518951686.11,55865,10.69,73076.0,-2.85,-39.15,-39.85,0,*5D
1518951687.34,55866,10.69,73080.0,-2.85,-38.43,-38.85,0,*5D
1518951688.59,55867,10.69,73076.3,-2.85,-38.97,-39.53,0,*5F
1518951689.85,55868,10.63,73072.3,-2.85,-38.85,-39.41,0,*50
1518951691.12,55869,10.69,73078.0,-2.85,-38.05,-38.23,0,*5C
1518951692.39,55870,10.69,73074.5,-2.85,-38.49,-38.85,0,*50
1518951693.62,55871,10.69,73072.0,-2.83,-39.59,-40.03,0,*56
1518951694.82,55872,10.69,73076.3,-2.83,-38.97,-39.35,0,*5D
1518951696.02,55873,10.63,73076.0,-2.83,-38.35,-38.43,0,*54
1518951697.23,55874,10.69,73074.0,-2.83,-41.17,-41.73,0,*50
1518951698.46,55875,10.69,73072.3,-2.83,-40.59,-41.03,0,*5D
1518951699.72,55876,10.69,73074.8,-2.83,-39.23,-39.23,0,*50
1518951700.98,55877,10.69,73076.0,-2.85,-37.87,-38.23,0,*56
1518951702.24,55878,10.63,73076.0,-2.85,-38.67,-38.97,0,*57
1518951703.47,55879,10.69,73076.3,-2.83,-37.99,-38.43,0,*57
1518951704.73,55880,10.69,73078.0,-2.83,-37.51,-37.99,0,*5D
1518951705.97,55881,10.63,73072.8,-2.83,-38.49,-38.85,0,*58
1518951707.26,55882,10.69,73076.8,-2.81,-38.29,-38.29,0,*59
1518951708.51,55883,10.69,73076.5,-2.79,-37.69,-37.69,0,*5F
1518951709.77,55884,10.69,73076.3,-2.81,-37.45,-37.99,0,*5E
1518951711.01,55885,10.63,73076.3,-2.79,-37.39,-38.55,0,*5C
1518951712.26,55886,10.69,73078.8,-2.81,-37.15,-38.11,0,*56
1518951713.49,55887,10.69,73076.8,-2.79,-38.73,-39.59,0,*52
1518951714.74,55888,10.69,73078.0,-2.81,-38.43,-39.29,0,*5E
1518951715.98,55889,10.69,73078.3,-2.79,-36.97,-37.51,0,*5E
1518951717.24,55890,10.69,73078.3,-2.79,-36.79,-37.21,0,*51
1518951718.5,55891,10.69,73076.5,-2.77,-37.39,-38.05,0,*52
1518951719.75,55892,10.69,73080.0,-2.77,-38.05,-38.67,0,*55
1518951721.01,55893,10.69,73080.5,-2.75,-38.05,-38.67,0,*56
1518951722.28,55894,10.69,73078.3,-2.75,-38.17,-38.23,0,*52
1518951723.54,55895,10.69,73076.8,-2.75,-38.43,-38.79,0,*5D
1518951724.81,55896,10.69,73080.8,-2.77,-37.33,-37.63,0,*50
1518951726.09,55897,10.69,73078.5,-2.77,-36.91,-37.21,0,*5E
1518951727.33,55898,10.69,73078.3,-2.75,-36.19,-36.55,0,*51
1518951728.61,55899,10.69,73078.5,-2.75,-35.53,-36.13,0,*5F
1518951729.88,55900,10.69,73076.5,-2.73,-34.83,-35.53,0,*53
1518951731.14,55901,10.69,73078.0,-2.69,-34.95,-35.53,0,*5E
1518951732.36,55902,10.69,73078.3,-2.69,-35.13,-36.67,0,*56
1518951733.58,55903,10.69,73082.5,-2.69,-35.77,-37.57,0,*57
1518951734.8,55904,10.69,73082.8,-2.69,-36.97,-38.61,0,*57
1518951736.03,55905,10.69,73082.5,-2.69,-38.17,-39.53,0,*50
1518951737.29,55906,10.69,73078.0,-2.69,-39.53,-41.55,0,*5B
1518951738.55,55907,10.69,73078.0,-2.73,-39.03,-39.97,0,*55
1518951739.76,55908,10.69,73082.3,-2.73,-38.61,-39.65,0,*52
1518951741.02,55909,10.69,73076.8,-2.73,-38.79,-39.97,0,*57
1518951742.26,55910,10.69,73074.5,-2.69,-38.97,-39.79,0,*54
1518951743.49,55911,10.69,73076.8,-2.73,-38.97,-39.59,0,*5C
1518951744.75,55912,10.69,73078.0,-2.73,-38.79,-39.41,0,*56
1518951746.0,55913,10.69,73078.5,-2.73,-39.03,-39.53,0,*58
1518951747.23,55914,10.69,73076.3,-2.73,-38.61,-39.15,0,*58
1518951748.47,55915,10.69,73074.8,-2.73,-38.49,-38.85,0,*5B
1518951749.73,55916,10.69,73076.0,-2.73,-38.49,-38.67,0,*54
1518951750.99,55917,10.69,73080.0,-2.73,-38.29,-38.67,0,*53
1518951752.23,55918,10.69,73076.8,-2.69,-37.63,-38.17,0,*51
1518951753.47,55919,10.69,73076.5,-2.69,-38.23,-38.61,0,*5A
1518951754.73,55920,10.69,73078.3,-2.69,-38.11,-38.23,0,*57
1518951755.97,55921,10.69,73072.5,-2.69,-38.35,-38.79,0,*5F
1518951757.23,55922,10.69,73072.5,-2.67,-37.75,-37.99,0,*58
1518951758.46,55923,10.69,73072.5,-2.67,-38.17,-38.73,0,*59
1518951759.72,55924,10.69,73074.3,-2.65,-37.39,-37.63,0,*51
1518951760.96,55925,10.69,73072.8,-2.65,-38.29,-38.85,0,*59
1518951762.19,55926,10.69,73078.3,-2.65,-38.11,-38.55,0,*5C
1518951763.43,55927,10.69,73082.8,-2.63,-37.87,-38.17,0,*5D
1518951764.69,55928,10.69,73076.0,-2.61,-39.03,-39.59,0,*59
1518951765.95,55929,10.69,73074.8,-2.61,-38.49,-39.15,0,*5F
1518951767.23,55930,10.69,73070.3,-2.63,-38.67,-39.29,0,*56
1518951768.48,55931,10.69,73072.8,-2.63,-38.35,-39.03,0,*58
1518951769.74,55932,10.69,73068.8,-2.63,-38.35,-38.91,0,*51
1518951771.0,55933,10.69,73064.0,-2.63,-38.17,-38.67,0,*59
1518951772.23,55934,10.69,73070.0,-2.63,-38.73,-39.09,0,*55
1518951773.48,55935,10.69,73082.0,-2.63,-38.73,-39.23,0,*5C
1518951774.72,55936,10.69,73078.5,-2.61,-38.49,-38.85,0,*59
1518951775.96,55937,10.69,73066.8,-2.61,-39.79,-40.35,0,*5E
1518951777.23,55938,10.69,73070.3,-2.63,-40.03,-40.41,0,*53
1518951778.49,55939,10.69,73070.0,-2.63,-39.09,-39.29,0,*56
1518951779.72,55940,10.69,73072.3,-2.63,-38.55,-39.09,0,*52
1518951780.93,55941,10.69,73070.5,-2.65,-38.35,-38.85,0,*56
1518951782.13,55942,10.69,73068.3,-2.65,-38.17,-38.73,0,*5C
1518951783.39,55943,10.69,73074.3,-2.65,-39.53,-40.41,0,*52
1518951784.65,55944,10.69,73070.8,-2.67,-39.35,-39.59,0,*50
1518951785.91,55945,10.69,73068.3,-2.65,-39.03,-39.29,0,*51
1518951787.14,55946,10.69,73074.0,-2.65,-38.85,-39.29,0,*5D
1518951788.4,55947,10.69,73070.5,-2.63,-38.35,-38.67,0,*5A
1518951789.68,55948,10.69,73068.0,-2.63,-38.11,-38.29,0,*59
1518951790.91,55949,10.69,73066.0,-2.63,-38.05,-38.17,0,*50
1518951792.2,55950,10.69,73064.8,-2.63,-37.93,-38.11,0,*5E
1518951793.45,55951,10.69,73070.5,-2.61,-38.49,-39.03,0,*57
1518951794.69,55952,10.69,73066.0,-2.61,-37.99,-38.43,0,*53
1518951795.95,55953,10.69,73066.8,-2.61,-37.99,-38.29,0,*5E
1518951797.21,55954,10.69,73064.3,-2.61,-38.29,-38.67,0,*57
1518951798.48,55955,10.69,73066.3,-2.59,-37.81,-37.87,0,*51
1518951799.77,55956,10.69,73064.3,-2.59,-37.51,-37.99,0,*50
1518951800.97,55957,10.69,73066.8,-2.57,-38.43,-38.97,0,*52
1518951802.23,55958,10.69,73066.8,-2.59,-38.29,-38.97,0,*5F
1518951803.49,55959,10.69,73068.0,-2.57,-39.15,-39.59,0,*5D
1518951804.72,55960,10.69,73068.3,-2.57,-39.53,-40.15,0,*53
1518951805.95,55961,10.69,73066.8,-2.57,-40.21,-40.65,0,*5E
1518951807.18,55962,10.69,73066.5,-2.59,-39.47,-39.85,0,*5D
1518951808.44,55963,10.69,73066.0,-2.59,-38.29,-38.85,0,*54
1518951809.73,55964,10.69,73072.8,-2.59,-37.81,-37.99,0,*5C
1518951810.97,55965,10.69,73074.3,-2.59,-38.05,-38.43,0,*56
1518951812.23,55966,10.69,73074.0,-2.57,-38.79,-39.29,0,*5D
1518951813.42,55967,10.69,73074.3,-2.57,-38.35,-38.97,0,*50
1518951814.66,55968,10.69,73074.0,-2.57,-39.09,-39.59,0,*52
1518951815.92,55969,10.69,73082.3,-2.59,-37.69,-38.05,0,*5D
1518951817.2,55970,10.69,73074.8,-2.59,-39.15,-39.97,0,*5A
1518951818.49,55971,10.69,73074.3,-2.59,-39.23,-39.79,0,*5E
1518951819.77,55972,10.69,73074.5,-2.59,-38.23,-38.79,0,*5D
1518951821.0,55973,10.69,73072.5,-2.57,-38.73,-39.29,0,*53
1518951822.25,55974,10.69,73074.5,-2.57,-38.23,-38.79,0,*55
1518951823.51,55975,10.69,73076.0,-2.59,-38.05,-38.79,0,*5E
1518951824.73,55976,10.69,73072.3,-2.57,-38.35,-38.91,0,*56
1518951825.97,55977,10.69,73070.3,-2.57,-37.81,-38.35,0,*59
1518951827.2,55978,10.69,73078.0,-2.57,-38.73,-39.41,0,*56
1518951828.39,55979,10.69,73072.8,-2.57,-38.17,-38.73,0,*55
1518951829.63,55980,10.69,73078.3,-2.57,-37.81,-38.43,0,*50
1518951830.89,55981,10.69,73076.8,-2.55,-38.11,-38.85,0,*5F
1518951832.15,55982,10.69,73068.3,-2.55,-37.93,-38.55,0,*54
1518951833.43,55983,10.69,73072.5,-2.55,-37.51,-37.99,0,*54
1518951834.65,55984,10.69,73072.8,-2.53,-37.27,-37.87,0,*5B
1518951835.88,55985,10.69,73074.5,-2.53,-37.99,-38.55,0,*5F
1518951837.14,55986,10.69,73076.0,-2.51,-37.51,-37.87,0,*5A
1518951838.41,55987,10.69,73076.8,-2.51,-37.81,-38.43,0,*51
1518951839.69,55988,10.69,73070.0,-2.51,-37.69,-38.11,0,*5F
1518951840.94,55989,10.69,73070.5,-2.51,-40.35,-40.85,0,*55
1518951842.23,55990,10.69,73066.5,-2.51,-39.29,-39.79,0,*53
1518951843.51,55991,10.69,73068.8,-2.51,-38.49,-39.03,0,*58
1518951844.77,55992,10.69,73070.5,-2.51,-39.59,-40.03,0,*55
1518951846.04,55993,10.69,73068.0,-2.51,-39.03,-39.41,0,*53
1518951847.28,55994,10.69,73066.3,-2.51,-38.43,-38.85,0,*58
1518951848.53,55995,10.69,73074.5,-2.51,-38.23,-38.61,0,*55
1518951849.79,55996,10.69,73068.5,-2.49,-38.29,-38.79,0,*5C
1518951851.03,55997,10.69,73070.5,-2.51,-38.97,-39.41,0,*5B
1518951852.29,55998,10.69,73074.0,-2.51,-38.85,-39.41,0,*57
1518951853.54,55999,10.69,73074.3,-2.51,-39.29,-39.85,0,*59
1518951854.81,56000,10.69,73074.8,-2.51,-38.67,-39.23,0,*54
1518951856.09,56001,10.69,73076.8,-2.51,-38.11,-38.49,0,*59
1518951857.37,56002,10.69,73074.5,-2.51,-38.11,-38.67,0,*56
1518951858.62,56003,10.69,73070.5,-2.51,-38.05,-38.49,0,*5E
1518951859.86,56004,10.69,73074.5,-2.49,-37.87,-38.29,0,*53
1518951861.13,56005,10.69,73076.8,-2.51,-37.87,-38.49,0,*5D
1518951862.33,56006,10.69,73078.3,-2.49,-38.43,-38.97,0,*53
1518951863.56,56007,10.69,73074.0,-2.45,-38.23,-39.09,0,*5E
1518951864.78,56008,10.69,73072.8,-2.49,-38.05,-39.03,0,*53
1518951866.03,56009,10.69,73074.5,-2.49,-38.11,-39.23,0,*55
1518951867.3,56010,10.69,73078.8,-2.51,-37.93,-39.03,0,*53
1518951868.56,56011,10.69,73076.8,-2.51,-37.45,-38.67,0,*5A
1518951869.76,56012,10.69,73076.0,-2.49,-38.05,-38.97,0,*54
1518951870.98,56013,10.69,73074.3,-2.49,-38.43,-39.41,0,*5D
1518951872.22,56014,10.69,73070.8,-2.49,-39.65,-40.59,0,*58
1518951873.47,56015,10.69,73072.5,-2.51,-38.11,-38.85,0,*5C
1518951874.72,56016,10.69,73070.8,-2.49,-38.29,-39.23,0,*50
1518951875.98,56017,10.69,73074.0,-2.51,-37.87,-38.79,0,*5D
1518951877.24,56018,10.69,73072.3,-2.51,-39.03,-39.85,0,*52
1518951878.49,56019,10.69,73076.3,-2.51,-39.29,-40.03,0,*5B
1518951879.75,56020,10.69,73074.5,-2.51,-39.15,-39.65,0,*50
1518951880.98,56021,10.69,73072.3,-2.51,-38.43,-38.97,0,*5F
1518951882.17,56022,10.69,73070.0,-2.49,-38.97,-39.47,0,*50
1518951883.4,56023,10.69,73064.5,-2.51,-39.47,-40.03,0,*5A
1518951884.66,56024,10.69,73068.8,-2.51,-39.65,-40.21,0,*5D
1518951885.92,56025,10.69,73070.5,-2.51,-39.23,-39.65,0,*50
1518951887.2,56026,10.69,73074.3,-2.51,-39.03,-39.41,0,*57
1518951888.45,56027,10.69,73072.3,-2.51,-38.43,-38.79,0,*59
1518951889.68,56028,10.69,73068.8,-2.49,-38.85,-39.41,0,*5F
1518951890.96,56029,10.69,73078.5,-2.51,-38.67,-39.15,0,*5A
1518951892.24,56030,10.69,73078.5,-2.51,-40.21,-40.97,0,*5B
1518951893.52,56031,10.69,73068.5,-2.51,-40.97,-41.55,0,*58
1518951894.75,56032,10.69,73062.8,-2.55,-39.35,-39.85,0,*5B
1518951896.01,56033,10.69,73064.0,-2.55,-39.47,-40.09,0,*55
1518951897.24,56034,10.69,73064.5,-2.55,-39.35,-40.03,0,*5D
1518951898.5,56035,10.69,73070.5,-2.55,-39.09,-39.71,0,*58
1518951899.76,56036,10.69,73070.0,-2.55,-39.09,-39.71,0,*5B
1518951900.99,56037,10.69,73066.0,-2.53,-38.35,-39.03,0,*57
1518951902.22,56038,10.69,73070.0,-2.57,-39.53,-40.15,0,*54
1518951903.45,56039,10.69,73070.3,-2.57,-39.41,-39.91,0,*54
1518951904.65,56040,10.69,73076.8,-2.57,-38.17,-38.73,0,*55
1518951905.87,56041,10.69,73068.5,-2.57,-40.53,-41.35,0,*57
1518951907.16,56042,10.69,73066.5,-2.59,-39.97,-40.59,0,*57
1518951908.39,56043,10.69,73064.3,-2.59,-38.61,-39.35,0,*5A
1518951909.64,56044,10.69,73062.8,-2.59,-38.05,-38.67,0,*59
1518951910.88,56045,10.69,73070.3,-2.59,-38.43,-38.97,0,*55
1518951912.07,56046,10.69,73074.5,-2.57,-38.05,-38.73,0,*50
1518951913.34,56047,10.69,73068.8,-2.59,-40.41,-41.03,0,*59
1518951914.6,56048,10.69,73062.3,-2.59,-40.53,-41.35,0,*50
1518951915.85,56049,10.69,73058.8,-2.59,-40.35,-40.79,0,*58
1518951917.06,56050,10.69,73058.8,-2.61,-40.03,-40.53,0,*56
1518951918.29,56051,10.69,73056.0,-2.63,-40.65,-41.29,0,*59
1518951919.58,56052,10.69,73068.0,-2.63,-39.71,-40.21,0,*58
1518951920.84,56053,10.69,73068.0,-2.63,-39.47,-40.09,0,*56
1518951922.11,56054,10.69,73070.8,-2.63,-40.03,-40.85,0,*5B
1518951923.34,56055,10.69,73066.5,-2.65,-41.11,-41.67,0,*53
1518951924.6,56056,10.69,73064.5,-2.67,-41.93,-42.37,0,*5E
1518951925.86,56057,10.69,73064.0,-2.67,-40.53,-40.97,0,*5A
1518951927.13,56058,10.69,73068.5,-2.69,-39.15,-39.59,0,*5B
1518951928.35,56059,10.69,73066.5,-2.69,-41.17,-41.87,0,*5B
1518951929.62,56060,10.69,73066.3,-2.73,-39.79,-40.41,0,*56
1518951930.85,56061,10.69,73072.3,-2.73,-39.35,-39.97,0,*5A
1518951932.1,56062,10.69,73072.8,-2.73,-41.23,-41.93,0,*5A
1518951933.34,56063,10.69,73068.0,-2.73,-41.03,-41.81,0,*5A
1518951934.59,56064,10.69,73072.0,-2.77,-40.21,-41.11,0,*51
1518951935.85,56065,10.69,73070.5,-2.77,-39.47,-40.21,0,*5C
1518951937.1,56066,10.69,73074.3,-2.77,-40.79,-41.61,0,*59
1518951938.4,56067,10.69,73070.8,-2.77,-39.59,-40.29,0,*59
1518951939.61,56068,10.69,73068.0,-2.79,-39.09,-39.85,0,*55
1518951940.84,56069,10.69,73070.3,-2.79,-39.03,-39.85,0,*5E
1518951942.07,56070,10.69,73072.3,-2.79,-39.29,-39.91,0,*5B
1518951943.28,56071,10.69,73068.5,-2.79,-41.11,-42.13,0,*58
1518951944.51,56072,10.69,73072.3,-2.81,-42.37,-43.15,0,*5C
1518951945.76,56073,10.69,73076.3,-2.85,-40.73,-41.55,0,*5D
1518951947.02,56074,10.69,73074.8,-2.83,-39.97,-40.79,0,*57
1518951948.29,56075,10.69,73076.5,-2.83,-39.79,-40.59,0,*54
1518951949.55,56076,10.69,73070.3,-2.85,-39.97,-40.53,0,*5B
1518951950.84,56077,10.69,73074.0,-2.85,-39.15,-39.71,0,*5E
1518951952.1,56078,10.69,73070.3,-2.83,-40.59,-41.23,0,*59
1518951953.38,56079,10.69,73076.5,-2.85,-40.79,-41.55,0,*5D
1518951954.64,56080,10.69,73064.3,-2.89,-39.59,-40.03,0,*59
1518951955.91,56081,10.69,73066.8,-2.89,-40.09,-40.47,0,*53
1518951957.12,56082,10.69,73066.3,-2.87,-39.85,-40.47,0,*54
1518951958.38,56083,10.69,73064.3,-2.89,-40.21,-41.03,0,*5A
1518951959.59,56084,10.69,73070.0,-2.87,-39.91,-40.65,0,*57
1518951960.83,56085,10.69,73068.0,-2.89,-39.91,-40.47,0,*58
1518951962.12,56086,10.69,73068.0,-2.89,-39.79,-40.59,0,*52
1518951963.38,56087,10.69,73064.0,-2.89,-42.25,-42.83,0,*53
1518951964.59,56088,10.69,73068.8,-2.95,-41.11,-41.49,0,*50
1518951965.82,56089,10.69,73068.8,-2.95,-39.97,-40.47,0,*5F
1518951967.06,56090,10.69,73066.8,-2.95,-39.09,-39.71,0,*5B
1518951968.27,56091,10.69,73068.3,-2.95,-40.73,-41.29,0,*5B
1518951969.48,56092,10.69,73064.5,-2.95,-40.35,-40.91,0,*58
1518951970.77,56093,10.69,73070.0,-2.97,-39.03,-39.59,0,*5A
1518951972.01,56094,10.69,73074.8,-2.95,-38.79,-39.65,0,*5C
1518951973.24,56095,10.69,73064.8,-2.95,-39.15,-39.85,0,*58
1518951974.48,56096,10.69,73066.3,-2.95,-39.47,-39.97,0,*5F
1518951975.7,56097,10.69,73070.0,-2.95,-39.09,-39.65,0,*59
1518951976.94,56098,10.69,73068.8,-2.95,-38.17,-38.49,0,*57
1518951978.17,56099,10.69,73070.0,-2.91,-39.53,-40.15,0,*55
1518951979.41,56100,10.69,73068.5,-2.91,-39.97,-40.35,0,*5E
1518951980.64,56101,10.69,73070.3,-2.95,-39.65,-40.29,0,*5B
1518951981.88,56102,10.69,73072.0,-2.95,-39.29,-39.91,0,*5D
1518951983.12,56103,10.69,73072.3,-2.91,-38.29,-38.97,0,*5E
1518951984.36,56104,10.69,73074.5,-2.91,-40.09,-41.03,0,*57
1518951985.59,56105,10.69,73068.3,-2.95,-41.11,-41.93,0,*53
1518951986.87,56106,10.69,73066.8,-2.97,-41.81,-42.57,0,*50
1518951988.13,56107,10.69,73068.8,-2.97,-39.03,-39.91,0,*52
1518951989.36,56108,10.69,73070.8,-2.99,-38.85,-39.53,0,*52
1518951990.63,56109,10.69,73070.5,-2.97,-38.85,-39.59,0,*57
1518951991.87,56110,10.69,73068.5,-2.99,-39.59,-40.03,0,*50
1518951993.11,56111,10.69,73068.0,-2.97,-38.67,-39.35,0,*58
1518951994.36,56112,10.69,73068.5,-2.97,-38.43,-39.03,0,*58
1518951995.62,56113,10.69,73082.5,-2.97,-38.61,-39.23,0,*5B
1518951996.91,56114,10.69,73082.8,-2.97,-39.03,-39.79,0,*56
1518951998.16,56115,10.69,73076.3,-2.97,-39.23,-39.91,0,*53
1518951999.4,56116,10.69,73068.8,-2.95,-39.29,-39.91,0,*58
1518952000.62,56117,10.69,73066.8,-2.91,-40.15,-40.73,0,*5E
1518952001.85,56118,10.69,73068.8,-2.95,-39.97,-40.47,0,*56
1518952003.1,56119,10.69,73074.0,-2.97,-38.97,-39.53,0,*5F
1518952004.3,56120,10.69,73072.0,-2.95,-39.35,-39.85,0,*55
1518952005.52,56121,10.69,73076.8,-2.95,-38.61,-39.09,0,*50
1518952006.77,56122,10.69,73072.3,-2.97,-38.23,-38.61,0,*58
1518952008.01,56123,10.69,73072.5,-2.95,-39.71,-40.35,0,*53
1518952009.27,56124,10.69,73074.0,-2.97,-38.97,-39.79,0,*59
1518952010.5,56125,10.69,73068.8,-2.97,-38.17,-38.85,0,*52
1518952011.79,56126,10.69,73072.0,-2.97,-37.39,-37.81,0,*59
1518952013.04,56127,10.69,73072.5,-2.97,-37.51,-38.17,0,*56
1518952014.25,56128,10.69,73078.8,-2.95,-37.57,-38.17,0,*5D
1518952015.51,56129,10.69,73072.5,-2.95,-37.93,-38.79,0,*5C
1518952016.72,56130,10.69,73068.8,-2.95,-38.97,-39.91,0,*58
1518952017.97,56131,10.69,73074.5,-2.97,-38.05,-39.03,0,*5B
1518952019.2,56132,10.69,73074.8,-2.97,-37.45,-38.43,0,*56
1518952020.46,56133,10.69,73074.0,-2.97,-37.63,-38.97,0,*5A
1518952021.74,56134,10.69,73072.0,-2.97,-39.41,-40.79,0,*5C
1518952022.98,56135,10.69,73074.0,-2.99,-41.17,-42.31,0,*51
1518952024.19,56136,10.69,73076.3,-3.03,-39.09,-40.47,0,*53
1518952025.43,56137,10.69,73070.5,-3.01,-39.09,-40.65,0,*50
1518952026.67,56138,10.69,73072.5,-3.03,-38.73,-40.41,0,*57
1518952027.93,56139,10.69,73072.5,-3.01,-37.57,-38.67,0,*56
1518952029.19,56140,10.69,73078.3,-3.03,-38.11,-39.59,0,*5B
1518952030.44,56141,10.69,73076.0,-3.03,-38.67,-39.97,0,*59
1518952031.68,56142,10.69,73076.3,-3.05,-40.15,-41.73,0,*53
1518952032.9,56143,10.69,73074.3,-3.07,-39.91,-41.41,0,*53
1518952034.17,56144,10.69,73070.3,-3.07,-40.09,-41.35,0,*58
1518952035.4,56145,10.69,73068.8,-3.07,-38.55,-39.59,0,*5A
1518952036.63,56146,10.69,73070.3,-3.07,-38.97,-39.97,0,*55
1518952037.86,56147,10.69,73070.3,-3.09,-38.17,-38.73,0,*59
1518952039.1,56148,10.69,73068.3,-3.07,-37.69,-38.43,0,*5D
1518952040.36,56149,10.69,73072.5,-3.07,-37.99,-39.41,0,*50
1518952041.62,56150,10.69,73068.8,-3.07,-39.15,-40.21,0,*5A
1518952042.89,56151,10.69,73074.0,-3.07,-39.15,-40.21,0,*5B
1518952044.16,56152,10.69,73070.0,-3.07,-39.41,-40.41,0,*5F
1518952045.42,56153,10.69,73074.3,-3.09,-39.03,-40.15,0,*57
1518952046.68,56154,10.69,73072.0,-3.09,-39.41,-40.35,0,*54
1518952047.95,56155,10.69,73070.0,-3.09,-39.15,-40.35,0,*54
1518952049.18,56156,10.69,73078.0,-3.11,-40.73,-41.55,0,*57
1518952050.42,56157,10.69,73078.8,-3.11,-38.85,-39.79,0,*51
1518952051.67,56158,10.69,73074.8,-3.09,-38.05,-39.03,0,*52
1518952052.93,56159,10.69,73072.3,-3.09,-39.03,-40.03,0,*5A
1518952054.2,56160,10.69,73072.3,-3.09,-39.59,-40.73,0,*58
1518952055.46,56161,10.69,73078.5,-3.09,-38.43,-39.53,0,*5F
1518952056.72,56162,10.69,73082.5,-3.11,-39.29,-40.41,0,*55
1518952057.98,56163,10.69,73072.3,-3.09,-39.91,-40.79,0,*55
1518952059.25,56164,10.69,73072.0,-3.11,-40.09,-41.23,0,*5A
1518952060.46,56165,10.69,73076.0,-3.11,-39.65,-40.65,0,*5C
1518952061.73,56166,10.69,73078.3,-3.09,-38.85,-39.79,0,*5A
1518952062.99,56167,10.69,73080.0,-3.09,-38.43,-39.15,0,*5B
1518952064.21,56168,10.69,73078.3,-3.09,-38.55,-39.35,0,*51
1518952065.5,56169,10.69,73076.0,-3.09,-39.23,-40.09,0,*51
1518952066.76,56170,10.69,73076.5,-3.09,-38.85,-39.53,0,*55
1518952068.0,56171,10.69,73080.8,-3.09,-37.87,-38.55,0,*5E
1518952069.24,56172,10.69,73076.8,-3.07,-38.05,-38.79,0,*58
1518952070.5,56173,10.69,73074.5,-3.07,-40.09,-40.79,0,*55
1518952071.76,56174,10.69,73076.0,-3.07,-39.41,-39.97,0,*5E
1518952073.0,56175,10.69,73072.5,-3.05,-39.91,-40.53,0,*56
1518952074.26,56176,10.69,73064.0,-3.05,-39.15,-39.85,0,*5C
1518952075.5,56177,10.69,73066.8,-3.07,-39.79,-40.15,0,*52
1518952076.77,56178,10.69,73068.5,-3.07,-39.15,-39.71,0,*5B
1518952078.02,56179,10.69,73070.3,-3.05,-38.97,-39.71,0,*53
1518952079.28,56180,10.69,73076.5,-3.05,-38.55,-39.15,0,*59
1518952080.51,56181,10.69,73074.8,-3.05,-39.91,-40.65,0,*58
1518952081.79,56182,10.69,73076.0,-3.05,-38.79,-39.29,0,*5A
1518952083.04,56183,10.69,73078.8,-3.05,-40.53,-41.35,0,*5E
1518952084.29,56184,10.69,73080.8,-3.05,-38.97,-39.53,0,*51
1518952085.51,56185,10.69,73070.3,-3.05,-38.97,-39.47,0,*55
1518952086.76,56186,10.69,73074.0,-3.05,-39.09,-39.53,0,*55
1518952088.0,56187,10.69,73070.0,-3.05,-39.09,-39.65,0,*51
1518952089.29,56188,10.69,73074.0,-3.05,-39.71,-40.09,0,*55
1518952090.57,56189,10.69,73072.5,-3.05,-39.15,-39.71,0,*57
1518952091.8,56190,10.69,73070.3,-3.05,-39.35,-39.85,0,*56
1518952093.06,56191,10.69,73070.0,-3.05,-39.35,-39.71,0,*5C
1518952094.32,56192,10.69,73074.0,-3.01,-38.43,-38.67,0,*5D
1518952095.58,56193,10.69,73074.5,-3.01,-40.09,-40.65,0,*50
1518952096.81,56194,10.69,73068.0,-3.03,-40.79,-41.29,0,*5B
1518952098.02,56195,10.69,73068.0,-3.03,-41.41,-41.99,0,*5B